Location: Poughquag
(41.6090°N, 73.6820°W)
Time: 10:12:21
(UTC-05:00)

SR - Pass Details

Date: 13 December 2023
Orbit: 574 x 868 km, 66.7° (Epoch: 25 February)

Event Time Altitude Azimuth Distance (km) Brightness Sun altitude
Rises 16:51:01 0° 337° (NNW) 3,450 ? -5.1°
Reaches altitude 10° 16:53:58 10° 349° (N) 2,491 ? -5.6°
Maximum altitude 16:58:46 26° 45° (NE) 1,572 ? -6.4°
Drops below altitude 10° 17:03:20 10° 102° (ESE) 2,363 ? -7.2°
Sets 17:06:02 0° 115° (ESE) 3,239 ? -7.7°
